Tracking 35030 objects as of 11-Aug-2026
HD Live streaming from Space Station
objects crossing your sky now

STARLINK-31521

Track STARLINK-31521 now!
10-day predictions
STARLINK-31521 is classified as:


NORAD ID: 59015
Int'l Code: 2024-036T
Launch date: February 23, 2024
Source: United States (US)
Launch site: AIR FORCE WESTERN TEST RANGE (AFWTR)
Your satellite tracking list
Your tracking list is empty




NASA's NSSDC Master Catalog

Two Line Element Set (TLE):
1 59015U 24036T   26222.91876259 -.00003697  00000-0 -10747-3 0  9995
2 59015  53.1600  81.9395 0001355 103.4553 256.6600 15.31689638138936
Source of the keplerian elements: AFSPC